Location: Elaine Barite Prospect
(34.1431°N, 106.7922°W)
Time: 12:08:06
(UTC+00:00)

Cosmos 1570 Rocket - Pass Details

Date: 13 December 2025
Orbit: 759 x 784 km, 74.1° (Epoch: 15 January)

Event Time Altitude Azimuth Distance (km) Brightness Sun altitude
Rises 13:31:25 0° 208° (SSW) 3,235 7.2 -7.0°
Reaches altitude 10° 13:33:50 10° 213° (SSW) 2,315 6.4 -6.5°
Maximum altitude 13:38:58 53° 290° (WNW) 954 4.2 -5.6°
Drops below altitude 10° 13:44:10 10° 7° (N) 2,341 6.3 -4.6°
Sets 13:46:38 0° 12° (NNE) 3,275 7.1 -4.1°
